Time,TemperatureF,DewpointF,PressureIn,WindDirection,WindDirectionDegrees,WindSpeedMPH,WindSpeedGustMPH,Humidity,HourlyPrecipIn,Conditions,Clouds,dailyrainin,SolarRadiationWatts/m^2,SoftwareType,DateUTC
2013-06-02 00:01:00,56.9,34.0,31.46,NNE,16,3.0,8.0,43,0.00,,,0.00,0,weatherlink.com 1.10,2013-06-02 06:01:00,
2013-06-02 00:16:00,57.1,34.0,31.46,NNE,16,3.0,7.0,42,0.00,,,0.00,0,weatherlink.com 1.10,2013-06-02 06:16:00,
2013-06-02 00:31:00,57.1,33.0,31.46,North,5,0.0,8.0,41,0.00,,,0.00,0,weatherlink.com 1.10,2013-06-02 06:31:00,
2013-06-02 00:46:00,56.8,33.0,31.45,North,360,1.0,6.0,41,0.00,,,0.00,0,weatherlink.com 1.10,2013-06-02 06:46:00,
2013-06-02 01:01:00,56.3,34.0,31.45,North,11,0.0,3.0,43,0.00,,,0.00,0,weatherlink.com 1.10,2013-06-02 07:01:00,
2013-06-02 01:16:00,56.4,34.0,31.44,North,5,8.0,9.0,43,0.00,,,0.00,0,weatherlink.com 1.10,2013-06-02 07:16:00,
2013-06-02 01:31:00,56.0,35.0,31.43,North,5,3.0,9.0,45,0.00,,,0.00,0,weatherlink.com 1.10,2013-06-02 07:31:00,
2013-06-02 01:46:00,56.1,35.0,31.43,North,355,3.0,8.0,45,0.00,,,0.00,0,weatherlink.com 1.10,2013-06-02 07:46:00,
2013-06-02 02:01:00,53.4,41.0,31.44,North,5,2.0,6.0,63,0.01,,,0.01,0,weatherlink.com 1.10,2013-06-02 08:01:00,
2013-06-02 02:16:00,52.9,40.0,31.44,North,360,2.0,6.0,61,0.01,,,0.01,0,weatherlink.com 1.10,2013-06-02 08:16:00,
2013-06-02 02:31:00,53.4,40.0,31.43,NNW,338,7.0,15.0,60,0.01,,,0.01,0,weatherlink.com 1.10,2013-06-02 08:31:00,
2013-06-02 02:46:00,52.7,40.0,31.43,North,350,5.0,14.0,62,0.01,,,0.01,0,weatherlink.com 1.10,2013-06-02 08:46:00,
2013-06-02 03:01:00,52.1,42.0,31.40,ESE,115,15.0,15.0,69,0.01,,,0.02,0,weatherlink.com 1.10,2013-06-02 09:01:00,
2013-06-02 03:16:00,52.0,42.0,31.41,SW,231,5.0,11.0,70,0.01,,,0.02,0,weatherlink.com 1.10,2013-06-02 09:16:00,
2013-06-02 03:31:00,51.4,42.0,31.41,SSE,165,0.0,11.0,71,0.01,,,0.02,0,weatherlink.com 1.10,2013-06-02 09:31:00,
2013-06-02 03:46:00,51.1,42.0,31.41,West,271,2.0,4.0,72,0.01,,,0.02,0,weatherlink.com 1.10,2013-06-02 09:46:00,
2013-06-02 04:01:00,49.0,43.0,31.42,ENE,71,3.0,4.0,80,0.01,,,0.03,0,weatherlink.com 1.10,2013-06-02 10:01:00,
2013-06-02 04:16:00,49.1,43.0,31.43,ESE,104,2.0,4.0,80,0.03,,,0.05,0,weatherlink.com 1.10,2013-06-02 10:16:00,
2013-06-02 04:31:00,49.5,43.0,31.41,SE,134,6.0,8.0,77,0.05,,,0.07,0,weatherlink.com 1.10,2013-06-02 10:31:00,
2013-06-02 04:46:00,50.2,43.0,31.40,ESE,115,10.0,12.0,76,0.05,,,0.07,0,weatherlink.com 1.10,2013-06-02 10:46:00,
2013-06-02 05:01:00,51.0,43.0,31.40,SE,126,9.0,14.0,73,0.04,,,0.07,0,weatherlink.com 1.10,2013-06-02 11:01:00,
2013-06-02 05:17:00,50.6,43.0,31.39,SE,140,0.0,9.0,74,0.02,,,0.07,0,weatherlink.com 1.10,2013-06-02 11:17:00,
2013-06-02 05:32:00,50.0,42.0,31.40,SSE,148,1.0,3.0,75,0.00,,,0.07,0,weatherlink.com 1.10,2013-06-02 11:32:00,
2013-06-02 05:47:00,48.7,42.0,31.39,SSE,148,0.0,2.0,78,0.00,,,0.07,0,weatherlink.com 1.10,2013-06-02 11:47:00,
2013-06-02 06:02:00,49.5,42.0,31.39,West,267,2.0,3.0,76,0.00,,,0.07,5,weatherlink.com 1.10,2013-06-02 12:02:00,
2013-06-02 06:17:00,47.6,43.0,31.39,WNW,282,0.0,1.0,84,0.00,,,0.07,11,weatherlink.com 1.10,2013-06-02 12:17:00,
2013-06-02 06:32:00,47.2,43.0,31.38,WNW,284,1.0,2.0,84,0.00,,,0.07,12,weatherlink.com 1.10,2013-06-02 12:32:00,
2013-06-02 06:47:00,46.8,43.0,31.38,WNW,299,0.0,2.0,85,0.00,,,0.07,25,weatherlink.com 1.10,2013-06-02 12:47:00,
2013-06-02 07:02:00,47.2,43.0,31.38,WNW,299,0.0,2.0,84,0.00,,,0.07,69,weatherlink.com 1.10,2013-06-02 13:02:00,
2013-06-02 07:17:00,48.3,43.0,31.38,WNW,299,0.0,2.0,81,0.00,,,0.07,74,weatherlink.com 1.10,2013-06-02 13:17:00,
2013-06-02 07:32:00,50.0,44.0,31.38,WNW,299,0.0,2.0,79,0.00,,,0.07,158,weatherlink.com 1.10,2013-06-02 13:32:00,
2013-06-02 07:47:00,51.2,44.0,31.38,WNW,299,0.0,0.0,75,0.00,,,0.07,130,weatherlink.com 1.10,2013-06-02 13:47:00,
2013-06-02 08:02:00,51.9,44.0,31.37,WNW,299,1.0,1.0,75,0.00,,,0.07,134,weatherlink.com 1.10,2013-06-02 14:02:00,
2013-06-02 08:17:00,51.6,46.0,31.36,SW,236,0.0,2.0,81,0.00,,,0.07,295,weatherlink.com 1.10,2013-06-02 14:17:00,
2013-06-02 08:32:00,51.9,47.0,31.36,WSW,246,0.0,2.0,82,0.00,,,0.07,130,weatherlink.com 1.10,2013-06-02 14:32:00,
2013-06-02 08:47:00,49.9,47.0,31.36,WSW,240,3.0,4.0,88,0.00,,,0.07,308,weatherlink.com 1.10,2013-06-02 14:47:00,
2013-06-02 09:02:00,49.7,46.0,31.35,WSW,239,3.0,5.0,88,0.00,,,0.07,199,weatherlink.com 1.10,2013-06-02 15:02:00,
2013-06-02 09:17:00,50.0,47.0,31.34,WSW,239,0.0,2.0,89,0.00,,,0.07,246,weatherlink.com 1.10,2013-06-02 15:17:00,
2013-06-02 09:32:00,50.9,46.0,31.33,WSW,248,0.0,3.0,84,0.00,,,0.07,357,weatherlink.com 1.10,2013-06-02 15:32:00,
2013-06-02 09:47:00,50.8,45.0,31.32,WSW,248,0.0,3.0,81,0.00,,,0.07,260,weatherlink.com 1.10,2013-06-02 15:47:00,
2013-06-02 10:02:00,50.9,46.0,31.32,West,279,2.0,4.0,82,0.00,,,0.07,209,weatherlink.com 1.10,2013-06-02 16:02:00,
2013-06-02 10:17:00,52.1,45.0,31.31,WNW,299,0.0,5.0,77,0.00,,,0.07,192,weatherlink.com 1.10,2013-06-02 16:17:00,
2013-06-02 10:32:00,51.6,45.0,31.30,WNW,299,0.0,2.0,79,0.00,,,0.07,163,weatherlink.com 1.10,2013-06-02 16:32:00,
2013-06-02 10:47:00,51.5,45.0,31.30,WNW,302,0.0,4.0,79,0.00,,,0.07,171,weatherlink.com 1.10,2013-06-02 16:47:00,
2013-06-02 11:02:00,51.7,45.0,31.30,WNW,302,1.0,2.0,79,0.00,,,0.07,214,weatherlink.com 1.10,2013-06-02 17:02:00,
2013-06-02 11:17:00,51.8,46.0,31.30,WNW,302,1.0,3.0,80,0.00,,,0.07,102,weatherlink.com 1.10,2013-06-02 17:17:00,
2013-06-02 11:32:00,50.9,46.0,31.29,West,271,0.0,2.0,82,0.00,,,0.07,141,weatherlink.com 1.10,2013-06-02 17:32:00,
2013-06-02 11:47:00,52.4,46.0,31.30,SW,219,4.0,7.0,79,0.00,,,0.07,183,weatherlink.com 1.10,2013-06-02 17:47:00,
2013-06-02 12:02:00,52.3,47.0,31.29,SSW,207,7.0,9.0,81,0.00,,,0.07,209,weatherlink.com 1.10,2013-06-02 18:02:00,
2013-06-02 12:17:00,53.1,43.0,31.28,South,178,3.0,10.0,69,0.00,,,0.07,244,weatherlink.com 1.10,2013-06-02 18:17:00,
2013-06-02 12:32:00,54.4,45.0,31.28,SSW,212,6.0,11.0,70,0.00,,,0.07,399,weatherlink.com 1.10,2013-06-02 18:32:00,
2013-06-02 12:47:00,54.5,44.0,31.27,SSW,193,7.0,11.0,69,0.00,,,0.07,492,weatherlink.com 1.10,2013-06-02 18:47:00,
2013-06-02 13:02:00,54.8,44.0,31.27,SSE,165,8.0,13.0,66,0.00,,,0.07,441,weatherlink.com 1.10,2013-06-02 19:02:00,
2013-06-02 13:17:00,55.0,42.0,31.27,SSW,202,8.0,15.0,62,0.00,,,0.07,561,weatherlink.com 1.10,2013-06-02 19:17:00,
2013-06-02 13:32:00,54.5,43.0,31.27,SSW,213,7.0,11.0,66,0.00,,,0.07,246,weatherlink.com 1.10,2013-06-02 19:32:00,
2013-06-02 13:47:00,53.8,42.0,31.28,SW,233,8.0,12.0,64,0.00,,,0.07,90,weatherlink.com 1.10,2013-06-02 19:47:00,
2013-06-02 14:02:00,50.1,44.0,31.29,NW,312,7.0,12.0,79,0.00,,,0.07,160,weatherlink.com 1.10,2013-06-02 20:02:00,
2013-06-02 14:17:00,48.2,45.0,31.29,NNE,19,1.0,4.0,87,0.01,,,0.08,329,weatherlink.com 1.10,2013-06-02 20:17:00,
2013-06-02 14:32:00,49.1,44.0,31.29,NE,40,0.0,3.0,83,0.01,,,0.08,287,weatherlink.com 1.10,2013-06-02 20:32:00,
2013-06-02 14:48:00,50.5,44.0,31.28,NE,40,0.0,3.0,78,0.01,,,0.08,185,weatherlink.com 1.10,2013-06-02 20:48:00,
2013-06-02 15:03:00,51.3,45.0,31.29,NNW,336,2.0,4.0,78,0.01,,,0.08,225,weatherlink.com 1.10,2013-06-02 21:03:00,
2013-06-02 15:18:00,50.3,45.0,31.30,NNW,331,3.0,8.0,83,0.00,,,0.08,155,weatherlink.com 1.10,2013-06-02 21:18:00,
2013-06-02 15:33:00,50.1,44.0,31.30,WNW,297,0.0,10.0,78,0.00,,,0.08,93,weatherlink.com 1.10,2013-06-02 21:33:00,
2013-06-02 15:48:00,49.4,41.0,31.29,East,96,3.0,6.0,72,0.00,,,0.08,58,weatherlink.com 1.10,2013-06-02 21:48:00,
2013-06-02 16:03:00,49.7,42.0,31.30,ENE,70,3.0,3.0,76,0.01,,,0.09,49,weatherlink.com 1.10,2013-06-02 22:03:00,
2013-06-02 16:18:00,49.0,42.0,31.31,ENE,72,0.0,5.0,77,0.02,,,0.10,67,weatherlink.com 1.10,2013-06-02 22:18:00,
2013-06-02 16:33:00,48.5,40.0,31.30,ENE,59,0.0,3.0,73,0.03,,,0.11,79,weatherlink.com 1.10,2013-06-02 22:33:00,
2013-06-02 16:48:00,48.5,42.0,31.31,East,84,0.0,5.0,78,0.03,,,0.11,158,weatherlink.com 1.10,2013-06-02 22:48:00,
2013-06-02 17:03:00,48.1,44.0,31.32,SW,234,2.0,4.0,86,0.02,,,0.11,97,weatherlink.com 1.10,2013-06-02 23:03:00,
2013-06-02 17:18:00,47.4,44.0,31.31,South,180,3.0,7.0,89,0.01,,,0.11,105,weatherlink.com 1.10,2013-06-02 23:18:00,
2013-06-02 17:33:00,47.9,45.0,31.30,South,180,3.0,6.0,90,0.00,,,0.11,355,weatherlink.com 1.10,2013-06-02 23:33:00,
2013-06-02 17:48:00,49.2,46.0,31.31,SSW,196,7.0,9.0,88,0.00,,,0.11,376,weatherlink.com 1.10,2013-06-02 23:48:00,
2013-06-02 18:03:00,49.2,46.0,31.31,South,178,7.0,11.0,87,0.00,,,0.11,332,weatherlink.com 1.10,2013-06-03 00:03:00,
2013-06-02 18:18:00,48.2,45.0,31.32,South,184,8.0,10.0,87,0.00,,,0.11,118,weatherlink.com 1.10,2013-06-03 00:18:00,
2013-06-02 18:34:00,47.6,44.0,31.34,SSW,202,6.0,9.0,86,0.00,,,0.11,19,weatherlink.com 1.10,2013-06-03 00:34:00,
2013-06-02 18:48:00,44.9,40.0,31.36,North,5,6.0,12.0,83,0.04,,,0.15,12,weatherlink.com 1.10,2013-06-03 00:48:00,
2013-06-02 19:03:00,41.8,39.0,31.36,East,100,5.0,9.0,90,0.11,,,0.22,18,weatherlink.com 1.10,2013-06-03 01:03:00,
2013-06-02 19:18:00,44.1,41.0,31.35,NNE,29,2.0,5.0,87,0.13,,,0.24,49,weatherlink.com 1.10,2013-06-03 01:18:00,
2013-06-02 19:33:00,43.6,41.0,31.36,NE,55,3.0,8.0,89,0.13,,,0.24,32,weatherlink.com 1.10,2013-06-03 01:33:00,
2013-06-02 19:48:00,43.8,41.0,31.38,WSW,246,3.0,9.0,88,0.09,,,0.25,9,weatherlink.com 1.10,2013-06-03 01:48:00,
2013-06-02 20:03:00,42.9,41.0,31.38,North,5,3.0,10.0,91,0.03,,,0.25,16,weatherlink.com 1.10,2013-06-03 02:03:00,
2013-06-02 20:18:00,45.0,41.0,31.38,SW,227,1.0,6.0,84,0.02,,,0.26,28,weatherlink.com 1.10,2013-06-03 02:18:00,
2013-06-02 20:33:00,45.1,41.0,31.39,SE,131,0.0,4.0,85,0.02,,,0.26,70,weatherlink.com 1.10,2013-06-03 02:33:00,
2013-06-02 20:48:00,45.4,41.0,31.39,SSW,211,1.0,4.0,84,0.01,,,0.26,25,weatherlink.com 1.10,2013-06-03 02:48:00,
2013-06-02 21:03:00,45.1,42.0,31.40,SSW,211,0.0,2.0,88,0.01,,,0.26,7,weatherlink.com 1.10,2013-06-03 03:03:00,
2013-06-02 21:18:00,44.4,41.0,31.40,South,180,3.0,3.0,87,0.00,,,0.26,0,weatherlink.com 1.10,2013-06-03 03:18:00,
2013-06-02 21:33:00,44.6,40.0,31.40,South,180,0.0,2.0,85,0.00,,,0.26,0,weatherlink.com 1.10,2013-06-03 03:33:00,
2013-06-02 21:48:00,44.0,41.0,31.41,South,180,0.0,0.0,88,0.00,,,0.26,0,weatherlink.com 1.10,2013-06-03 03:48:00,
2013-06-02 22:03:00,43.8,40.0,31.41,South,180,0.0,1.0,87,0.00,,,0.26,0,weatherlink.com 1.10,2013-06-03 04:03:00,
2013-06-02 22:18:00,43.7,40.0,31.42,South,180,0.0,2.0,87,0.00,,,0.26,0,weatherlink.com 1.10,2013-06-03 04:18:00,
2013-06-02 22:33:00,43.6,40.0,31.42,South,180,0.0,0.0,86,0.00,,,0.26,0,weatherlink.com 1.10,2013-06-03 04:33:00,
2013-06-02 22:48:00,43.7,40.0,31.43,South,176,3.0,5.0,87,0.00,,,0.26,0,weatherlink.com 1.10,2013-06-03 04:48:00,
2013-06-02 23:03:00,44.0,40.0,31.43,SSW,206,2.0,4.0,87,0.00,,,0.26,0,weatherlink.com 1.10,2013-06-03 05:03:00,
2013-06-02 23:18:00,43.8,41.0,31.43,SSW,205,0.0,3.0,89,0.00,,,0.26,0,weatherlink.com 1.10,2013-06-03 05:18:00,
2013-06-02 23:33:00,44.0,41.0,31.43,SE,132,3.0,5.0,88,0.00,,,0.26,0,weatherlink.com 1.10,2013-06-03 05:33:00,
2013-06-02 23:48:00,44.2,41.0,31.43,South,169,2.0,5.0,89,0.00,,,0.26,0,weatherlink.com 1.10,2013-06-03 05:48:00,